Location: Melita
(38.4566°N, 122.6369°W)
Time: 15:41:46
(UTC+00:00)

Cosmos 1703 - Pass Details

Date: 24 January 2020
Orbit: 523 x 541 km, 82.5° (Epoch: 25 February)

Event Time Altitude Azimuth Distance (km) Brightness Sun altitude
Exits shadow 13:58:46 - 347° (NNW) 2,020 6.0 -16.4°
Reaches altitude 10° 13:59:18 10° 347° (NNW) 1,798 5.7 -16.3°
Maximum altitude 14:03:13 65° 265° (W) 590 3.2 -15.5°
Drops below altitude 10° 14:07:04 10° 184° (S) 1,773 6.0 -14.8°
Sets 14:09:12 0° 181° (S) 2,655 7.0 -14.4°
